Wind_Speed
22 23 24 24 25 26 27 27 28 27 27 27 25 25 25 25 25 24 24 23 22 22 22 22 21 21 21 20 21 21 21 22 23 23 22 23 23 24 24 24 24 23 23 23
23 24 24 25 25 26 27 27 28 28 27 26 26 26 26 26 25 25 24 24 23 24 24 23 23 22 22 21 21 21 22 23 24 23 23 23 24 24 24 24 24 24 24 24
24 24 26 26 25 26 27 28 27 28 27 27 26 26 27 27 25 25 25 25 25 25 25 25 24 24 23 23 22 22 22 22 22 23 24 25 25 25 25 25 25 25 25 25
26 26 27 26 25 26 27 27 27 27 27 27 26 27 28 28 28 27 27 27 26 25 25 25 25 25 24 24 23 23 23 23 23 25 25 25 25 27 26 26 26 26 26 26
27 27 27 26 25 25 26 27 27 27 27 27 28 27 27 28 29 28 27 27 26 26 26 26 25 25 25 25 25 25 25 25 25 26 27 27 27 26 27 27 27 27 26 26
27 27 27 26 26 26 27 27 26 27 26 27 28 27 26 28 29 29 27 27 27 27 27 27 26 26 26 26 26 26 26 26 27 27 27 28 28 27 27 27 26 26 25 25
28 28 28 27 26 26 27 26 26 27 27 27 27 26 25 26 27 28 28 27 27 27 27 27 27 26 26 27 27 27 27 27 26 27 28 27 27 27 27 26 25 25 24 24
28 29 29 27 27 27 27 27 26 27 27 27 27 26 26 26 27 28 27 27 27 28 28 28 28 27 27 27 27 27 27 28 27 28 28 29 28 27 26 26 25 24 23 23
27 27 27 26 26 27 27 27 27 27 26 26 27 27 27 28 28 28 28 28 28 28 28 28 29 28 27 27 27 28 28 27 27 28 27 27 26 25 25 24 24 23 22 22
24 24 24 25 26 27 27 27 27 27 27 26 26 26 27 27 28 29 28 28 28 28 28 29 30 28 27 27 27 27 26 26 26 25 25 25 24 24 23 23 23 23 22 22
22 23 23 24 25 25 26 27 27 27 27 27 27 27 27 27 27 28 29 29 29 28 28 28 27 26 26 26 27 26 26 26 25 25 24 24 24 23 22 21 22 22 22 23
21 22 23 24 24 25 25 25 26 26 26 26 26 26 25 25 25 27 27 27 27 27 26 26 26 26 26 26 26 26 26 26 25 25 25 24 23 23 22 21 21 21 22 22
20 21 22 22 22 23 23 23 24 24 25 25 25 25 25 25 25 26 26 26 26 26 26 25 25 25 25 25 26 26 26 26 25 25 25 24 23 22 21 21 20 20 21 21
19 20 20 20 20 21 22 23 23 22 22 22 23 23 23 24 24 24 25 25 25 25 25 25 24 24 24 24 24 24 24 24 24 24 24 24 23 23 22 21 21 20 21 21
17 18 19 19 20 20 20 20 21 20 20 21 22 22 23 23 23 22 23 24 24 24 24 24 24 24 23 23 23 23 23 24 24 24 24 23 22 22 22 21 21 21 21 22
17 17 17 18 18 17 17 17 18 19 19 20 21 21 21 21 21 21 22 22 22 22 22 22 23 23 22 22 22 22 22 23 24 24 23 23 22 21 21 21 21 21 21 22
15 16 16 16 16 15 15 16 17 18 17 17 18 19 20 20 20 20 21 21 20 20 20 21 21 22 22 22 22 22 23 23 24 25 23 23 23 22 22 22 22 21 21 22
15 15 15 15 15 15 16 16 17 17 17 17 18 18 18 19 19 19 19 19 19 19 19 20 20 21 21 22 22 22 22 22 22 22 23 23 23 23 23 22 22 22 22 22
14 15 15 16 16 16 17 17 18 18 17 17 17 17 17 18 19 19 19 19 19 19 18 19 19 20 20 21 22 22 21 21 21 21 21 21 21 22 22 22 22 22 23 23
14 14 15 16 17 18 19 19 18 18 17 18 18 18 18 17 18 18 18 18 19 19 19 19 19 19 20 20 21 21 21 20 21 21 21 21 21 21 22 22 22 22 22 23
13 13 14 15 16 17 18 18 18 17 17 17 18 18 18 17 17 17 17 17 18 18 19 19 19 20 20 20 20 20 21 21 22 22 21 21 22 23 23 23 23 24 24 24
13 13 14 14 14 15 15 16 16 16 15 15 16 16 17 16 16 16 17 17 18 18 19 19 18 19 20 20 21 21 21 21 21 22 22 23 23 23 24 24 25 25 25 25
13 13 13 13 13 14 14 14 14 15 15 15 15 16 16 16 16 16 17 17 18 18 19 19 19 19 19 20 20 21 22 22 23 23 23 23 24 25 25 25 25 26 26 26
12 12 12 12 12 12 12 12 13 14 14 15 15 15 16 16 16 16 16 17 17 18 18 19 19 20 20 20 20 20 21 22 22 23 23 23 24 24 25 25 26 26 26 27
11 11 11 12 12 11 12 12 13 13 13 13 13 14 14 15 15 15 16 17 17 18 19 19 20 20 20 20 21 21 21 21 21 22 22 22 23 23 24 25 26 26 27 27
10 10 10 11 11 11 11 12 12 12 11 12 13 14 14 14 14 15 16 17 18 19 19 20 20 20 20 20 21 21 22 21 21 22 22 23 23 23 24 24 25 26 26 27
9 9 10 10 10 11 12 12 12 12 12 12 13 14 14 14 14 15 15 16 17 18 18 19 20 21 21 21 21 21 21 22 22 22 22 23 23 23 24 25 26 26 27 27
Wind_Direction
249 248 249 250 251 252 254 256 258 260 261 261 263 262 261 260 259 260 260 261 264 266 267 268 268 267 266 268 269 268 267 267 267 268 269 268 267 266 268 269 268 268 268 267
249 249 250 251 252 253 255 257 259 261 262 262 262 263 261 260 260 259 258 259 263 265 267 268 268 267 267 270 270 270 270 270 268 270 271 269 268 266 267 268 267 269 269 268
252 252 253 252 252 255 257 259 261 262 262 262 261 261 262 261 261 260 257 258 263 264 265 267 267 267 267 268 268 267 269 271 269 272 274 272 269 268 269 269 268 269 268 268
254 254 253 254 253 255 258 260 261 261 263 263 263 264 264 264 262 262 260 259 261 264 266 265 266 266 267 266 266 265 267 268 267 272 274 274 273 270 269 268 268 268 268 268
255 255 255 253 254 255 257 258 259 262 264 265 265 266 265 264 262 260 260 260 262 264 266 266 266 267 268 268 268 266 265 266 269 270 273 274 274 274 270 267 265 266 266 268
257 259 258 255 257 259 259 260 262 263 264 264 266 268 267 265 263 260 262 264 264 266 267 268 268 269 269 268 268 269 268 269 269 269 273 274 275 274 272 270 269 267 268 268
258 259 259 258 260 263 263 264 263 264 264 265 266 268 268 266 265 262 262 262 263 264 267 268 268 267 268 267 268 268 268 270 271 272 273 274 274 273 272 271 269 267 267 267
258 259 259 258 260 262 264 265 265 265 265 266 267 268 267 265 265 264 263 262 262 263 264 265 267 268 268 268 268 268 268 270 271 272 273 273 273 272 269 269 268 265 264 266
259 259 259 257 259 261 263 263 264 265 266 267 267 267 267 266 266 264 264 264 263 263 262 263 266 268 267 268 269 269 269 269 271 273 273 273 271 269 266 266 267 265 264 265
257 255 256 258 259 261 262 263 264 265 266 267 267 266 265 266 265 264 263 264 264 264 263 262 264 264 266 268 269 269 268 269 270 271 271 272 270 269 266 263 264 265 265 265
257 256 257 258 259 261 262 262 264 265 266 266 266 265 264 265 264 265 263 264 264 263 264 263 262 265 266 267 268 267 267 268 269 268 268 272 270 268 265 263 264 265 266 267
258 257 258 260 260 261 261 262 263 263 264 265 265 265 264 265 263 263 263 263 265 265 265 264 265 266 266 267 268 266 266 266 267 268 269 268 266 264 264 264 264 265 266 268
260 259 259 259 260 261 261 263 265 267 267 267 265 266 266 265 264 261 262 263 264 265 266 266 265 266 266 266 266 266 265 264 265 267 267 265 263 263 264 263 263 264 267 268
261 261 260 259 260 262 264 266 268 271 269 266 266 267 267 266 266 264 263 265 266 267 268 268 267 266 267 265 264 265 264 263 263 265 264 264 264 264 263 263 264 265 267 268
263 260 257 256 258 262 266 268 269 269 269 267 266 265 266 265 265 265 266 267 267 268 267 266 264 265 263 262 263 264 264 263 264 265 265 264 263 263 263 263 264 266 267 267
260 260 257 255 257 261 265 267 271 272 270 270 268 264 263 264 264 264 265 265 266 266 266 264 263 262 261 262 263 263 264 264 263 264 265 264 264 264 264 263 264 266 267 267
258 259 258 255 257 260 266 270 272 273 270 268 267 264 263 263 262 262 263 264 264 265 265 265 264 263 261 262 264 266 266 265 264 264 265 264 264 266 265 265 265 266 268 269
260 260 259 261 263 267 270 272 273 273 271 268 268 269 266 264 264 266 265 263 263 263 264 265 265 263 259 261 265 267 266 263 264 264 264 265 266 266 267 267 267 267 268 270
267 264 265 267 267 267 269 272 273 273 272 271 271 271 270 269 267 269 268 262 263 263 263 264 264 261 262 266 268 267 265 266 266 265 265 266 266 267 266 266 268 268 269 271
269 267 267 268 269 270 270 273 275 273 272 271 270 272 273 270 269 268 267 265 264 263 264 264 263 263 265 266 267 265 265 265 265 265 264 265 267 267 266 267 268 270 271 271
269 271 274 275 274 273 272 272 272 271 270 269 268 270 272 273 272 270 267 265 265 264 264 264 264 266 267 266 265 263 263 263 264 265 265 267 268 268 268 269 270 271 271 271
271 276 279 279 278 277 276 276 274 272 270 269 269 270 272 273 274 274 270 268 267 267 267 266 266 267 266 265 265 263 263 264 266 267 267 268 269 271 272 272 273 274 273 273
275 279 282 282 281 282 280 277 275 272 271 270 271 271 272 272 272 274 274 272 270 269 269 268 268 269 268 268 266 266 267 268 268 267 267 269 270 271 273 275 274 275 277 275
281 286 287 286 284 286 285 283 280 278 275 274 273 272 271 271 271 272 272 271 270 270 270 269 269 269 269 270 270 271 272 273 272 269 270 272 272 271 272 274 275 276 276 276
290 289 288 288 288 289 289 287 286 284 281 278 277 275 273 272 272 273 274 274 273 271 271 271 269 269 270 271 272 272 272 273 274 273 273 273 273 274 274 276 277 277 277 276
290 290 289 289 289 290 290 290 287 287 286 283 283 281 278 276 275 275 277 278 277 275 274 272 272 271 272 272 272 272 271 271 271 272 273 273 273 274 276 277 279 279 279 278
289 292 290 289 291 293 293 292 290 288 287 286 286 286 284 281 280 281 281 282 281 279 277 274 273 273 273 273 272 274 273 271 271 272 273 273 274 275 277 279 281 281 281 280
Height
5754 5755 5757 5758 5760 5761 5762 5763 5764 5766 5768 5770 5771 5772 5774 5775 5776 5777 5779 5780 5781 5781 5782 5782 5782 5783 5783 5783 5784 5784 5784 5785 5785 5785 5785 5785 5786 5786 5786 5786 5787 5787 5787 5787
5748 5749 5750 5752 5754 5755 5756 5757 5758 5759 5761 5763 5764 5765 5767 5768 5769 5771 5772 5773 5775 5775 5776 5776 5776 5776 5777 5777 5777 5778 5778 5778 5778 5779 5779 5779 5779 5779 5779 5779 5779 5779 5779 5780
5742 5743 5744 5745 5748 5748 5749 5750 5752 5752 5755 5756 5757 5758 5759 5761 5762 5763 5765 5767 5768 5769 5769 5770 5770 5770 5770 5771 5771 5771 5771 5771 5772 5772 5772 5772 5772 5772 5772 5772 5772 5772 5772 5772
5734 5736 5737 5742 5741 5742 5743 5743 5744 5745 5747 5748 5750 5751 5752 5753 5755 5756 5757 5759 5760 5761 5762 5762 5763 5763 5764 5764 5764 5765 5765 5765 5765 5765 5765 5765 5765 5764 5764 5764 5764 5764 5764 5764
5727 5728 5729 5733 5734 5735 5736 5737 5738 5739 5740 5741 5742 5743 5745 5746 5747 5748 5750 5751 5752 5753 5754 5755 5755 5756 5757 5757 5757 5758 5758 5758 5757 5757 5757 5757 5756 5756 5756 5756 5756 5756 5756 5756
5719 5720 5722 5726 5727 5728 5730 5730 5732 5732 5733 5734 5735 5737 5738 5738 5739 5740 5741 5743 5744 5745 5746 5747 5748 5748 5749 5749 5750 5750 5750 5750 5750 5749 5749 5749 5748 5748 5748 5748 5748 5748 5748 5748
5712 5712 5714 5718 5719 5721 5723 5725 5725 5725 5726 5727 5728 5729 5730 5730 5731 5732 5734 5735 5736 5737 5738 5739 5740 5740 5741 5742 5742 5742 5742 5742 5742 5741 5741 5741 5740 5740 5740 5740 5740 5740 5740 5740
5704 5706 5710 5710 5712 5714 5715 5716 5716 5717 5718 5719 5720 5721 5721 5722 5723 5724 5726 5727 5728 5729 5731 5732 5732 5733 5733 5734 5734 5734 5734 5734 5734 5733 5733 5732 5731 5731 5731 5731 5732 5732 5733 5733
5698 5701 5702 5703 5704 5706 5707 5708 5709 5710 5711 5712 5712 5713 5714 5715 5715 5716 5718 5719 5720 5721 5722 5723 5724 5724 5725 5726 5726 5726 5726 5726 5725 5725 5724 5723 5722 5722 5723 5723 5724 5724 5725 5725
5690 5692 5694 5695 5697 5698 5699 5700 5701 5702 5703 5704 5704 5705 5705 5706 5707 5708 5709 5710 5711 5712 5713 5714 5715 5715 5717 5717 5717 5717 5717 5717 5717 5717 5716 5715 5715 5714 5715 5715 5716 5716 5717 5718
5683 5685 5687 5688 5689 5691 5692 5693 5694 5694 5695 5696 5696 5697 5697 5698 5699 5700 5701 5702 5703 5704 5704 5705 5706 5707 5708 5709 5709 5709 5709 5710 5709 5709 5709 5708 5708 5708 5708 5708 5708 5709 5710 5710
5678 5679 5680 5682 5682 5684 5685 5685 5686 5687 5687 5688 5688 5688 5689 5690 5690 5691 5692 5694 5694 5695 5696 5697 5698 5699 5700 5700 5700 5701 5701 5701 5702 5702 5701 5701 5701 5701 5701 5701 5701 5702 5702 5703
5671 5672 5673 5674 5676 5677 5677 5678 5679 5679 5679 5679 5680 5680 5681 5681 5682 5683 5684 5686 5687 5687 5688 5689 5690 5691 5692 5692 5692 5693 5693 5694 5694 5694 5694 5694 5694 5694 5695 5695 5695 5695 5695 5696
5665 5666 5667 5668 5670 5670 5671 5671 5672 5672 5672 5672 5673 5673 5673 5674 5675 5675 5677 5678 5679 5680 5680 5681 5682 5683 5684 5684 5685 5686 5686 5687 5687 5688 5688 5688 5688 5688 5688 5688 5689 5689 5689 5689
5659 5660 5661 5662 5664 5664 5665 5665 5666 5666 5666 5666 5666 5667 5667 5667 5668 5669 5670 5671 5671 5672 5672 5673 5674 5675 5676 5677 5678 5679 5679 5680 5680 5681 5681 5682 5682 5682 5682 5682 5682 5683 5683 5683
5654 5655 5656 5657 5658 5659 5659 5659 5659 5660 5660 5660 5660 5661 5661 5661 5662 5663 5663 5663 5664 5664 5665 5665 5667 5668 5669 5670 5671 5672 5673 5673 5674 5674 5674 5675 5675 5675 5676 5676 5676 5676 5676 5676
5650 5650 5651 5653 5654 5654 5654 5654 5654 5654 5654 5655 5655 5655 5655 5656 5657 5657 5657 5657 5658 5658 5659 5659 5660 5661 5662 5664 5665 5666 5666 5667 5667 5667 5668 5668 5668 5669 5669 5669 5669 5669 5669 5669
5645 5646 5646 5647 5648 5649 5649 5649 5649 5649 5649 5649 5649 5650 5650 5650 5651 5651 5651 5652 5652 5653 5653 5654 5654 5655 5656 5658 5658 5659 5659 5660 5660 5660 5661 5661 5662 5662 5662 5662 5662 5662 5662 5662
5640 5641 5642 5642 5643 5643 5644 5644 5644 5644 5644 5644 5644 5644 5644 5645 5645 5646 5646 5646 5647 5647 5648 5648 5649 5650 5651 5652 5652 5652 5652 5653 5653 5654 5654 5654 5655 5655 5655 5656 5656 5655 5655 5655
5636 5637 5637 5637 5638 5638 5638 5638 5638 5638 5638 5638 5639 5639 5639 5639 5640 5640 5640 5641 5642 5642 5643 5643 5644 5645 5645 5645 5646 5646 5646 5646 5647 5648 5648 5648 5648 5648 5648 5648 5648 5648 5648 5648
5633 5632 5632 5632 5632 5632 5632 5632 5632 5633 5633 5633 5633 5633 5634 5634 5634 5634 5635 5636 5636 5637 5638 5638 5638 5639 5639 5639 5640 5640 5640 5640 5641 5641 5641 5641 5641 5641 5641 5641 5641 5641 5640 5640
5629 5628 5628 5627 5627 5627 5627 5627 5627 5627 5627 5627 5628 5628 5628 5628 5629 5629 5629 5630 5631 5631 5632 5632 5632 5633 5633 5633 5633 5633 5633 5634 5634 5634 5634 5634 5634 5634 5634 5633 5633 5633 5632 5632
5625 5624 5624 5623 5623 5622 5622 5622 5622 5622 5622 5622 5622 5623 5623 5623 5623 5624 5624 5624 5624 5625 5625 5626 5626 5626 5627 5627 5627 5626 5626 5626 5626 5627 5627 5626 5626 5626 5626 5625 5625 5624 5624 5623
5621 5620 5620 5619 5619 5618 5618 5618 5617 5617 5617 5617 5617 5617 5618 5618 5618 5618 5618 5618 5618 5619 5619 5619 5619 5619 5619 5619 5619 5619 5619 5619 5619 5619 5619 5618 5618 5618 5617 5617 5616 5616 5615 5614
5617 5617 5616 5616 5615 5615 5614 5614 5613 5613 5613 5612 5612 5612 5612 5613 5613 5613 5613 5612 5612 5612 5613 5612 5612 5612 5612 5612 5612 5611 5611 5612 5611 5611 5611 5610 5610 5609 5609 5608 5607 5606 5606 5605
5614 5613 5613 5612 5612 5611 5611 5610 5610 5609 5609 5608 5608 5608 5608 5608 5608 5607 5607 5607 5606 5606 5606 5606 5605 5605 5605 5604 5604 5604 5604 5603 5603 5603 5602 5602 5601 5601 5600 5599 5598 5597 5596 5595
5611 5611 5610 5610 5609 5608 5607 5606 5606 5605 5605 5604 5604 5603 5603 5603 5603 5602 5602 5601 5601 5600 5599 5599 5598 5598 5597 5597 5597 5596 5596 5595 5595 5595 5594 5594 5593 5592 5592 5591 5589 5588 5587 5586